This demonstration page uses our WeatherBlox Daily Observations layout. Learn more.

Left ArrowRight Arrow

39.01783, -85.05884

Hourly Observations for November 7, 2018

Temp ( °F °C ) Dew Point ( °F °C ) Humidity (%) Winds ( mph kmh ) Pressure ( in mb ) Visibility ( mi km ) Precip ( " mm )
12:52 am 00:52 Clear 49 9.4 38 3.3 66 66 WSW 5 7 30.05 1018 10 16 0.00 0.00
1:52 am 01:52 Clear 48 8.9 39 3.9 71 71 WSW 6 9 30.06 1018 10 16 0.00 0.00
2:52 am 02:52 Clear 47 8.3 38 3.3 71 71 WSW 5 7 30.07 1018 10 16 0.00 0.00
3:52 am 03:52 Clear 44 6.7 38 3.3 79 79 NW 9 15 30.07 1018 10 16 0.00 0.00
4:52 am 04:52 Clear 43 6.1 39 3.9 86 86 Calm 30.10 1019 10 16 0.00 0.00
5:52 am 05:52 Clear 43 6.1 37 2.8 80 80 WNW 5 7 30.10 1019 10 16 0.00 0.00
6:52 am 06:52 Mostly Cloudy 41 5 36 2.2 82 82 W 6 9 30.13 1020 10 16 0.00 0.00
7:52 am 07:52 Mostly Cloudy 42 5.6 37 2.8 82 82 WSW 5 7 30.14 1021 10 16 0.00 0.00
8:52 am 08:52 Mostly Cloudy 44 6.7 37 2.8 76 76 W 8 13 30.16 1022 10 16 0.00 0.00
9:52 am 09:52 Cloudy 44 6.7 34 1.1 68 68 W 8 13 30.17 1022 10 16 0.00 0.00
10:52 am 10:52 Mostly Cloudy 48 8.9 31 -0.6 52 52 WSW 12 19 30.18 1022 10 16 0.00 0.00
11:52 am 11:52 Mostly Cloudy 50 10 35 1.7 57 57 SW 9 15 30.18 1022 10 16 0.00 0.00
12:52 pm 12:52 Partly Cloudy 51 10.6 29 -1.7 43 43 W 9 15 30.16 1021 10 16 0.00 0.00
1:52 pm 13:52 Partly Cloudy 53 11.7 30 -1.1 41 41 WNW 7 11 30.14 1021 10 16 0.00 0.00
2:52 pm 14:52 Mostly Sunny 54 12.2 30 -1.1 40 40 VRB 5 7 30.14 1021 10 16 0.00 0.00
3:52 pm 15:52 Mostly Sunny 54 12.2 30 -1.1 40 40 W 8 13 30.14 1021 10 16 0.00 0.00
4:52 pm 16:52 Mostly Sunny 51 10.6 32 0 48 48 W 6 9 30.15 1021 10 16 0.00 0.00
5:52 pm 17:52 Clear 48 8.9 30 -1.1 50 50 NW 7 11 30.16 1021 10 16 0.00 0.00
6:52 pm 18:52 Clear 47 8.3 30 -1.1 52 52 NW 7 11 30.18 1022 10 16 0.00 0.00
7:52 pm 19:52 Clear 44 6.7 30 -1.1 58 58 NNW 6 9 30.19 1023 10 16 0.00 0.00
8:52 pm 20:52 Clear 43 6.1 30 -1.1 60 60 NW 5 7 30.20 1023 10 16 0.00 0.00
9:52 pm 21:52 Clear 42 5.6 30 -1.1 62 62 NNW 9 15 30.22 1023 10 16 0.00 0.00
10:52 pm 22:52 Clear 40 4.4 32 0 73 73 N 13 20 30.23 1024 10 16 0.00 0.00
11:52 pm 23:52 Clear 37 2.8 32 0 82 82 N 12 19 30.25 1024 10 16 0.00 0.00

Powered by AerisWeather